Fresno, CA

10:26 PM PDT on August 20, 2017 (GMT -0700)
Fresno Yosemite International

Weather History for KFAT - May, 2013

Change the Weather History Date:

Sunday, May 26, 2013

  Actual Average Record
Temperature  
Mean Temperature 69 °F 72 °F  
Max Temperature 82 °F 87 °F 103 °F (1951)
Min Temperature 55 °F 58 °F 40 °F (1953)
Degree Days  
Heating Degree Days 0    
Month to date heating degree days 4  
Since 1 July heating degree days 1745  
Cooling Degree Days 4    
Month to date cooling degree days 219  
Year to date cooling degree days 366  
Growing Degree Days 18 (Base 50)    
Moisture  
Dew Point 46 °F    
Average Humidity 47    
Maximum Humidity 66    
Minimum Humidity 28    
Precipitation  
Precipitation 0.00 in 0.02 in 0.94 in (1946)
Month to date precipitation 0.07 0.38  
Year to date precipitation 2.28 7.58  
Since 1 July precipitation 5.67  
Snow  
Snow 0.00 in - - ()
Month to date snowfall 0.0  
Since 1 July snowfall 0.0  
Snow Depth 0.00 in    
Sea Level Pressure  
Sea Level Pressure 30.02 in    
Wind  
Wind Speed 14 mph (NW)    
Max Wind Speed 21 mph    
Max Gust Speed 26 mph    
Visibility 10 miles    
Events      
T = Trace of Precipitation, MM = Missing Value Source: NWS Daily Summary

Daily Weather History Graph

Daily Weather History Graph

Search for Another Location

Airport or City:

Trip Planner

Search our weather history database for the weather conditions in past years. The results will help you decide how hot, cold, wet, or windy it might be!

Date:

Astronomy

May. 26, 2013 Rise Set
Actual Time 5:43 AM PDT 8:08 PM PDT
Civil Twilight 5:14 AM PDT 8:38 PM PDT
Nautical Twilight 4:37 AM PDT 9:15 PM PDT
Astronomical Twilight 3:57 AM PDT 9:55 PM PDT
Moon 10:01 PM PDT (5/26) 7:18 AM PDT (5/26)
Length of Visible Light 15h 24m
Length of Day
14h 24m
Waning Gibbous, 96% of the Moon is Illuminated
May 26
Waning Gibbous
May 31
Last Quarter
Jun 8
New
Jun 16
First Quarter
Jun 23
Full

Hourly Weather History & Observations

Time (PDT) Temp. Dew Point Humidity Pressure Visibility Wind Dir Wind Speed Gust Speed Precip Events Conditions
12:53 AM 62.1 °F 41.0 °F 46% 29.99 in 10.0 mi NW 15.0 mph - N/A   Clear
1:53 AM 60.1 °F 42.1 °F 51% 29.99 in 10.0 mi WNW 12.7 mph - N/A   Clear
2:53 AM 59.0 °F 43.0 °F 55% 29.99 in 10.0 mi NW 15.0 mph - N/A   Clear
3:53 AM 57.0 °F 44.1 °F 62% 30.00 in 10.0 mi NW 11.5 mph - N/A   Clear
4:53 AM 55.9 °F 45.0 °F 67% 30.00 in 10.0 mi NW 13.8 mph - N/A   Clear
5:53 AM 55.0 °F 45.0 °F 69% 30.02 in 10.0 mi NW 9.2 mph - N/A   Scattered Clouds
6:53 AM 55.9 °F 45.0 °F 67% 30.03 in 10.0 mi NW 10.4 mph - N/A   Scattered Clouds
7:53 AM 61.0 °F 46.0 °F 58% 30.04 in 10.0 mi NW 11.5 mph - N/A   Partly Cloudy
8:53 AM 66.0 °F 46.0 °F 48% 30.04 in 10.0 mi NW 15.0 mph - N/A   Scattered Clouds
9:53 AM 70.0 °F 46.9 °F 44% 30.06 in 10.0 mi WNW 15.0 mph - N/A   Partly Cloudy
10:53 AM 72.0 °F 48.0 °F 43% 30.06 in 10.0 mi NW 12.7 mph 20.7 mph N/A   Partly Cloudy
11:53 AM 75.0 °F 46.9 °F 37% 30.06 in 10.0 mi WNW 13.8 mph 21.9 mph N/A   Scattered Clouds
12:53 PM 78.1 °F 46.9 °F 33% 30.04 in 10.0 mi NW 11.5 mph 21.9 mph N/A   Scattered Clouds
1:53 PM 79.0 °F 46.9 °F 32% 30.03 in 10.0 mi WNW 13.8 mph - N/A   Scattered Clouds
2:53 PM 81.0 °F 45.0 °F 28% 30.01 in 10.0 mi WNW 16.1 mph - N/A   Scattered Clouds
3:53 PM 81.0 °F 45.0 °F 28% 30.00 in 10.0 mi NW 15.0 mph 21.9 mph N/A   Mostly Cloudy
4:53 PM 79.0 °F 43.0 °F 28% 30.00 in 10.0 mi NW 11.5 mph - N/A   Scattered Clouds
5:53 PM 80.1 °F 45.0 °F 29% 29.99 in 10.0 mi NNW 11.5 mph - N/A   Mostly Cloudy
6:53 PM 79.0 °F 45.0 °F 30% 29.98 in 10.0 mi NW 16.1 mph - N/A   Mostly Cloudy
7:53 PM 77.0 °F 46.0 °F 33% 29.99 in 10.0 mi NW 17.3 mph - N/A   Scattered Clouds
8:53 PM 73.9 °F 46.9 °F 38% 30.00 in 10.0 mi NW 11.5 mph - N/A   Partly Cloudy
9:53 PM 72.0 °F 48.0 °F 43% 30.02 in 10.0 mi NW 15.0 mph 21.9 mph N/A   Clear
10:53 PM 68.0 °F 48.0 °F 49% 30.04 in 10.0 mi NW 17.3 mph 23.0 mph N/A   Clear
11:53 PM 66.0 °F 46.9 °F 50% 30.05 in 10.0 mi NW 16.1 mph - N/A   Clear